Location: Mary A Oil Field
(38.5606°N, 98.9545°W)
Time: 21:28:57
(UTC+00:00)

SL-16 R/B - Pass Details

Date: 20 January 2020
Orbit: 841 x 848 km, 71.0° (Epoch: 16 February)

Event Time Altitude Azimuth Distance (km) Brightness Sun altitude
Rises 03:05:15 0° 328° (NNW) 3,413 5.8 -39.3°
Reaches altitude 10° 03:07:53 10° 320° (NW) 2,473 5.0 -39.8°
Enters shadow 03:09:42 20° 309° (NW) 1,886 4.4 -40.1°
